GSAT0219 (GALILEO 23)

Last updated on Tue Jul 08 2025 00:02:33 GMT+0000 (Coordinated Universal Time)

1 43566U 18060C 25187.42038650 -.00000085 00000+0 00000+0 0 9992 2 43566 57.2694 351.1198 0001664 305.8929 54.0959 1.70476166 43298
UTC large
Height (km)
Speed (km/s)
/
Latitude / Longitude
Inclination (degrees)
Orbital Period (minutes)
Azimuth
Elevation
Range (km)
Doppler Factor

Next 0 passes for location: London (51.5072 / 0.1276)

Sorry there are no passes over London.